#timestamp,LO_Frequency,Hit,StdDev 
1504105215.6,286682704.7,Y,0.0
1504105235.4,286046999.2,P,0.4
1504105255.2,286046999.2,N,0.3
1504105275.1,286046999.4,N,0.3
1504105276.0,286046999.4,N,0.3
1504105295.8,286046998.7,Y,0.0
1504105315.7,286047001.0,P,0.8
1504105335.5,286047000.3,N,0.6
1504105355.3,286047000.9,N,0.6
1504105375.2,286047000.6,N,0.6
1504105395.9,286047000.5,N,0.5
1504105415.7,286047000.6,N,0.5
1504105435.6,286046999.8,N,0.5
1504105455.4,286047000.3,N,0.5
1504105475.2,286046999.9,N,0.5
1504105495.1,286047001.1,N,0.5
1504105496.0,286047001.1,N,0.5
1504105515.8,286047000.7,N,0.5
1504105535.6,286047001.1,N,0.5
1504105555.5,286047001.0,N,0.5
1504105575.3,286047001.1,N,0.5
1504105595.1,286046998.9,N,0.6
1504105615.9,286046998.6,N,0.8
1504105635.7,286046998.5,N,0.8
1504105655.5,286046998.1,N,1.0
1504105675.4,286046998.3,N,1.0
1504105695.2,286047000.6,N,1.0
1504105715.0,286046998.1,N,1.1
1504105715.9,286046998.1,N,1.1
1504105735.8,286046998.7,N,1.1
1504105755.6,286046998.3,N,1.1
1504105775.4,286047001.1,N,1.1
1504105795.3,286046998.1,N,1.2
1504105815.1,286047001.1,N,1.2
1504105816.0,286047001.1,N,1.2
1504105835.8,286046998.3,N,1.2
1504105855.7,286046998.3,N,1.2
1504105875.5,286046998.2,N,1.2
1504105895.3,286046998.5,N,1.2
1504105915.2,286047000.7,N,1.2
1504105935.9,286047000.3,N,1.2
1504105955.7,286046999.9,N,1.2
1504105975.6,286047000.7,N,1.2
1504105995.4,286047000.0,N,1.2
1504106015.2,286046999.8,N,1.2
1504106035.1,286046999.8,N,1.2
1504106036.0,286046999.8,N,1.2
1504106055.8,286047000.4,N,1.2
1504106075.6,286047001.4,N,1.2
1504106095.5,286047001.3,N,1.2
1504106115.3,286047002.3,N,1.3
1504106135.1,286047002.5,N,1.4
1504106155.9,286047002.4,N,1.4
1504106175.7,286047002.8,N,1.5
1504106195.5,286046999.7,N,1.5
1504106215.4,286046999.7,N,1.4
1504106235.2,286047002.3,N,1.5
1504106255.0,286047001.5,N,1.4
1504106255.9,286047001.5,N,1.4
1504106275.8,286047001.4,N,1.4
1504106295.6,286047001.4,N,1.3
1504106315.4,286047001.3,N,1.3
1504106335.3,286047001.6,N,1.3
1504106355.1,286047001.3,N,1.3
1504106375.9,286047004.4,Y,0.0
1504106395.7,286047002.1,P,0.7
1504106415.5,286047001.9,N,0.6
1504106435.4,286047001.8,N,0.6
1504106455.2,286047001.3,N,0.5
1504106475.0,286047003.5,Y,0.0
1504106475.9,286047003.5,P,1.0
1504106495.8,286046999.7,N,1.6
1504106515.6,286047000.1,N,1.5
1504106535.4,286047002.8,N,1.5
1504106555.3,286046999.9,N,1.5
1504106575.1,286046999.8,N,1.5
1504106576.0,286046999.8,N,1.4
1504106595.8,286047002.2,N,1.4
1504106615.7,286047002.0,N,1.4
1504106635.5,286047002.0,N,1.3
1504106655.3,286047001.6,N,1.3
1504106675.2,286047001.9,N,1.2
1504106695.9,286047001.9,N,1.2
1504106715.7,286047001.6,N,1.2
1504106735.6,286047001.5,N,1.1
1504106755.4,286047001.5,N,1.1
1504106775.2,286047001.8,N,1.1
1504106795.1,286047001.7,N,1.0
1504106796.0,286047001.7,N,1.0
1504106815.8,286047001.4,N,1.0
1504106835.6,286047001.3,N,1.0
1504106855.5,286047004.1,Y,0.0
1504106875.3,286047002.5,P,0.5
1504106895.1,286047002.1,P,0.4
1504106915.9,286047002.8,P,0.5
1504106935.7,286047002.3,Y,0.0
1504106955.5,286046998.9,P,1.7
1504106975.4,286046998.2,N,1.7
1504106995.2,286046998.1,N,1.7
1504107015.0,286046999.0,N,1.5
1504107015.9,286046999.0,N,1.4
1504107035.8,286046998.2,N,1.3
1504107055.6,286047001.1,N,1.4
1504107075.4,286047000.4,N,1.4
1504107095.3,286047000.1,N,1.3
1504107115.1,286047000.7,N,1.3
1504107135.8,286046998.1,N,1.3
1504107155.7,286047000.7,N,1.3
1504107175.5,286047000.5,N,1.3
1504107195.3,286047002.7,N,1.4
1504107215.2,286047002.8,N,1.6
1504107235.9,286047000.4,N,1.5
1504107255.7,286047001.0,N,1.5
1504107275.6,286046999.8,N,1.5
1504107295.4,286047000.0,N,1.4
1504107315.2,286047000.3,N,1.4
1504107335.1,286047000.1,N,1.4
1504107336.0,286047000.1,N,1.3
1504107355.8,286047000.1,N,1.3
1504107375.6,286047002.6,N,1.4
1504107395.5,286046999.7,N,1.3
1504107415.3,286047000.1,N,1.3
1504107435.1,286046999.9,N,1.3
1504107455.9,286046999.8,N,1.3
1504107475.7,286047002.8,N,1.3
1504107495.5,286046999.9,N,1.3
1504107515.4,286047000.0,N,1.3
1504107535.2,286046999.7,N,1.2
1504107555.0,286047002.3,N,1.2
1504107555.9,286047002.3,N,1.2
1504107575.8,286047002.5,N,1.2
1504107595.6,286047000.2,N,1.2
1504107615.4,286047002.0,N,1.2
1504107635.3,286047002.6,N,1.2
1504107655.1,286047002.2,N,1.2
1504107675.8,286047000.1,N,1.2
1504107695.7,286047000.2,N,1.1
1504107715.5,286047000.0,N,1.2
1504107735.3,286046999.8,N,1.2
1504107755.2,286047000.1,N,1.1
1504107775.0,286047000.1,N,1.1
1504107775.9,286047000.1,N,1.1
1504107795.7,286047000.1,N,1.1
1504107815.6,286047002.4,N,1.1
1504107835.4,286047002.3,N,1.1
1504107855.2,286047002.6,N,1.2
1504107875.1,286047002.0,N,1.2
1504107876.0,286047002.0,N,1.2
1504107895.8,286047002.6,N,1.2
1504107915.7,286047002.7,N,1.2
1504107935.5,286047000.1,N,1.2
1504107955.3,286047002.3,N,1.2
1504107975.2,286046999.9,N,1.2
1504107995.9,286046999.7,N,1.2
1504108015.7,286047001.6,N,1.2
1504108035.6,286047001.5,N,1.1
1504108055.4,286047001.4,N,1.1
1504108075.2,286047001.4,N,1.1
1504108095.1,286047004.0,Y,0.0
1504108096.0,286047004.0,P,1.3
1504108115.8,286047002.7,N,1.1
1504108135.6,286046999.7,N,1.6
1504108155.5,286047002.5,N,1.4
1504108175.3,286047002.5,N,1.3
1504108195.1,286046999.7,N,1.5
1504108215.9,286047001.8,N,1.4
1504108235.7,286047002.0,N,1.3
1504108255.5,286047002.6,N,1.3
1504108275.4,286047002.8,N,1.2
1504108295.2,286047002.4,N,1.2
1504108315.0,286047002.5,N,1.2
1504108315.9,286047002.5,N,1.1
1504108335.8,286047002.2,N,1.1
1504108355.6,286047002.1,N,1.1
1504108375.4,286047001.8,N,1.0
1504108395.3,286047002.2,N,1.0
1504108415.1,286046999.8,N,1.1
1504108435.8,286047002.7,N,1.1
1504108455.7,286047001.9,N,1.1
1504108475.5,286047002.2,N,1.0
1504108495.3,286047001.7,N,1.0
1504108515.2,286047001.3,N,1.0
1504108535.0,286047001.3,N,1.0
1504108535.9,286047001.3,N,1.0
1504108555.7,286047001.9,N,1.0
1504108575.6,286047001.6,N,0.9
1504108595.4,286047001.4,N,0.9
1504108615.2,286047002.4,N,0.9
1504108635.1,286047002.6,N,0.9
1504108636.0,286047002.6,N,0.8
1504108655.8,286047002.5,N,0.8
1504108675.6,286046999.9,N,0.8
1504108695.5,286047000.1,N,0.9
1504108715.3,286047002.8,Y,0.0
1504108735.1,286046998.6,P,1.6
1504108755.9,286046998.6,N,1.5
1504108775.7,286046998.2,N,1.5
1504108795.6,286047000.7,N,1.4
